Flag for U.S.A. Weather past 2 weeks in Wailuku, Hawaii, U.S.A.

Now
72 °F

Clear.


Feels Like: 73 °F
Forecast: 74 / 90 °F
Wind: 3 mph from North

Location: Kahului Airport

Current Time: Jul 4, 2015 at 5:54:23 AM

Latest Report: Jul 4, 2015 at 4:54 AM


Visibility: 10 mi

Pressure: 29.92 "Hg

Humidity: 76%

Dew point: 64 °F

Location of WailukuLocation

Historic Weather in Wailuku — Graph

°F

Wailuku temperature yesterday

Maximum temperature yesterday: 92 °F (at 12:54 PM)
Minimum temperature yesterday: 72 °F (at 2:54 AM)
Average temperature yesterday: 81 °F

Past Weeks' High & Low Weather Summary

 TemperatureHumidityPressure
High92 °F (Jun 28, 12:54 PM)90% (Jun 19, 5:54 AM)30.08 "Hg (Jun 19, 5:54 AM)
Low68 °F (Jun 27, 5:54 AM)44% (Jun 28, 11:54 AM)29.85 "Hg (Jul 1, 4:54 PM)
Average79 °F70%29.99 "Hg
* Reported Jun 19 3:54 AM — Jul 4 3:54 AM, Wailuku, Weather by CustomWeather, © 2015

Note: Actual official high and low records may vary slightly from our data, if they occured in-between our weather recording intervals... More about our weather records

Advertising

Wailuku weather history for previous 24 hours

 ConditionsComfort  
Time TempWeatherWind HumidityBarometerVisibility
3:54 AM
Sat, Jul 4
70 °FClear.3 mph84%29.93 "Hg10 mi
2:54 AM71 °FClear.6 mph84%29.93 "Hg10 mi
1:54 AM73 °FPassing clouds.3 mph79%29.94 "Hg10 mi
12:54 AM73 °FClear.5 mph79%29.96 "Hg10 mi
10:54 PM
Fri, Jul 3
74 °FClear.No wind79%29.97 "Hg10 mi
9:54 PM76 °FClear.3 mph69%29.95 "Hg10 mi
8:54 PM77 °FPassing clouds.8 mph66%29.94 "Hg10 mi
7:54 PM79 °FPassing clouds.10 mph72%29.92 "Hg10 mi
6:54 PM83 °FPassing clouds.7 mph59%29.89 "Hg10 mi
5:54 PM86 °FPassing clouds.3 mph55%29.88 "Hg10 mi
4:54 PM88 °FPassing clouds.15 mph50%29.87 "Hg10 mi
3:54 PM91 °FSunny.18 mph47%29.87 "Hg10 mi
2:54 PM92 °FScattered clouds.15 mph47%29.87 "Hg10 mi
1:54 PM91 °FScattered clouds.13 mph47%29.89 "Hg10 mi
12:54 PM92 °FScattered clouds.17 mph47%29.91 "Hg10 mi
11:54 AM90 °FScattered clouds.13 mph50%29.92 "Hg10 mi
10:54 AM91 °FScattered clouds.17 mph49%29.92 "Hg10 mi
9:54 AM87 °FScattered clouds.16 mph55%29.92 "Hg10 mi
8:54 AM86 °FPassing clouds.5 mph55%29.93 "Hg10 mi
7:54 AM80 °FPassing clouds.3 mph69%29.93 "Hg10 mi
6:54 AM74 °FPassing clouds.6 mph79%29.93 "Hg10 mi
5:54 AM72 °FPassing clouds.No wind87%29.93 "Hg10 mi
Weather by CustomWeather, © 2015

See weather overviewHow to use our weather pages